Tracking 18785 objects as of 26-July-2017
HD Live streaming from Space Station
objects crossing your sky now
MAYAK may become the brightest orbital object in the night sky!
Where is MAYAK now?
How to spot MAYAK

OFEQ 10

Track OFEQ 10 now!
10-day predictions
OFEQ 10 is classified as:


NORAD ID: 39650
Int'l Code: 2014-019A
Perigee: 396.8 km
Apogee: 609.1 km
Inclination: 140.9 °
Period: 94.5 minutes
Semi major axis: 6873 km
RCS: Unknown
Launch date: April 9, 2014
Source: Israel (ISRA)
Launch site: Yavne, Israel (YAVNE)
Your satellite tracking list
Your tracking list is empty





NASA's NSSDC Master Catalog

Two Line Element Set (TLE):
1 39650U 14019A   14108.11152156  .00093269  00000-0  27218-2 0    08
2 39650 140.9409 255.1115 0154412 132.0167 229.3866 15.23337433    09
Source of the keplerian elements: McCants